This is the latest recevied weather packets stored in our database for station/object W9WRP. If no packets are shown the sender has not sent any weather packets the latest 10 day(s).
| Time | Temp. | Humidity | Pressure | Rain* | Wind** | Luminosity | Snow |
|---|---|---|---|---|---|---|---|
| 1787532505 | 41.11° C | 18% | 1012.7 hPa | 0 mm | - | 81 W/m² | - |
| 1787532201 | 41.11° C | 18% | 1012.7 hPa | 0 mm | - | 31 W/m² | - |
| 1787531897 | 41.67° C | 17% | 1012.9 hPa | 0 mm | - | 29 W/m² | - |
| 1787531593 | 42.22° C | 17% | 1012.7 hPa | 0 mm | - | 37 W/m² | - |
| 1787531288 | 42.22° C | 17% | 1012.8 hPa | 0 mm | - | 87 W/m² | - |
| 1787530983 | 41.67° C | 17% | 1012.6 hPa | 0 mm | - | 84 W/m² | - |
| 1787530678 | 42.22° C | 17% | 1012.7 hPa | 0 mm | - | 118 W/m² | - |
| 1787530374 | 42.22° C | 17% | 1012.6 hPa | 0 mm | - | 154 W/m² | - |
| 1787530069 | 42.22° C | 17% | 1012.7 hPa | 0 mm | - | 106 W/m² | - |
| 1787529764 | 42.22° C | 17% | 1012.7 hPa | 0 mm | - | 112 W/m² | - |
| 1787529460 | 42.22° C | 17% | 1013.1 hPa | 0 mm | - | 104 W/m² | - |
| 1787529159 | 42.78° C | 16% | 1012.7 hPa | 0 mm | - | 98 W/m² | - |
| 1787528855 | 42.78° C | 17% | 1012.9 hPa | 0 mm | - | 264 W/m² | - |
| 1787528551 | 42.78° C | 16% | 1012.9 hPa | 0 mm | - | 284 W/m² | - |
| 1787528251 | 42.78° C | 16% | 1013.2 hPa | 0 mm | - | 172 W/m² | - |
| 1787527949 | 42.22° C | 16% | 1012.8 hPa | 0 mm | - | 213 W/m² | - |
| 1787527644 | 42.78° C | 16% | 1012.9 hPa | 0 mm | - | 131 W/m² | - |
| 1787527340 | 42.22° C | 17% | 1013.1 hPa | 0 mm | - | 183 W/m² | - |
| 1787527034 | 42.78° C | 16% | 1012.9 hPa | 0 mm | - | 341 W/m² | - |
| 1787526730 | 42.78° C | 16% | 1013.2 hPa | 0 mm | - | 197 W/m² | - |
| 1787526426 | 43.33° C | 16% | 1013.3 hPa | 0 mm | - | 106 W/m² | - |
| 1787526123 | 43.89° C | 15% | 1013.3 hPa | 0 mm | - | 185 W/m² | - |
| 1787525818 | 44.44° C | 16% | 1013.3 hPa | 0 mm | - | 181 W/m² | - |
| 1787525513 | 45° C | 15% | 1013.4 hPa | 0 mm | - | 124 W/m² | - |
| 1787525208 | 44.44° C | 16% | 1013.3 hPa | 0 mm | - | 224 W/m² | - |
* Rain latest hour (hover to see other rain measurements)
** Current wind speed in m/s (hover to see current wind gust speed)